Location: Fennell Observatory
(35.2597°N, 89.5125°W)
Time: 21:58:48
(UTC-05:00)

Daily predictions for brighter satellites

Satellite Brightness Start Highest point End
(mag) Time Altitude Azimuth Time Altitude Azimuth Time Altitude Azimuth
Cosmos 1455 Rocket 3.7 19:50:05 10° SSE 19:53:58 33° E 19:57:51 10° NNE
FENGYUN 3A 4.4 19:49:58 10° SE 19:54:44 34° ENE 19:59:30 10° N
NOSS 7 (E) 4.4 19:51:31 10° SSW 19:55:07 65° ESE 19:58:25 10° NE
Cosmos 1570 Rocket 4.1 19:53:16 10° S 19:58:28 59° ESE 20:03:39 10° NNE
Cosmos 2227 Rocket 3.2 19:53:55 10° N 19:58:49 29° ENE 20:03:40 10° ESE
Resurs 1-3 3.7 19:54:51 10° SSE 19:59:09 61° ENE 20:03:30 10° N
CZ-4B DEB 3.4 19:58:19 10° SE 20:01:22 38° ENE 20:04:28 10° N
Cosmos 1346 Rocket 3.6 20:01:29 10° NNE 20:05:04 32° ENE 20:08:40 10° SE
Cosmos 1536 3.6 20:03:35 10° SSW 20:07:30 58° W 20:11:28 10° N
Meteor 1-5 Rocket 4.1 20:02:57 10° S 20:08:11 63° E 20:13:33 10° NNE
ALOS 2.6 20:05:06 10° SE 20:09:33 46° ENE 20:14:01 10° N
Cosmos 2082 4.4 20:08:01 10° N 20:13:09 35° ENE 20:18:05 11° SE
Cosmos 2297 Rocket 3.2 20:09:28 10° N 20:14:17 28° ENE 20:18:32 12° ESE
Cosmos 1934 Rocket 3.9 20:12:03 10° S 20:18:07 78° E 20:24:21 10° N
Resurs 01 Rocket 2.3 20:14:19 10° S 20:18:40 57° W 20:23:03 10° NNW
CZ-3C R/B 4.2 18:46:42 10° WSW 20:19:34 49° SSW 20:28:27 13° SE
USA 186 2.2 20:21:35 11° SE 20:24:30 39° ENE 20:27:20 10° N
DELTA 2 R/B (1) 4.0 20:20:40 10° WNW 20:26:10 57° N 20:31:01 13° E
Delta 2 Rocket 4.0 20:20:56 10° W 20:26:40 78° SSW 20:30:45 17° ESE
Cosmos 1544 Rocket 4.0 20:23:27 10° SSW 20:27:47 66° W 20:32:10 10° N
ERS-1 Rocket 4.0 20:27:56 16° ESE 20:30:52 27° ENE 20:35:01 10° NNE
OTV 4 0.4 20:36:58 10° WNW 20:39:56 72° NNE 20:41:08 32° E
BREEZE-M DEB (TANK) 4.2 20:37:40 10° WSW 20:41:19 70° NNW 20:53:42 10° NE
Lacrosse 5 3.6 20:42:02 10° NNW 20:45:41 19° NE 20:48:07 14° ENE
Tiangong 1 3.3 20:43:34 10° NW 20:45:55 19° N 20:47:55 12° NE
Cosmos 1697 Rocket 2.8 20:43:24 10° S 20:48:48 49° ESE 20:54:13 10° NNE
SPOT 5 4.3 20:50:56 19° E 20:51:39 20° ENE 20:55:10 10° NNE
Cosmos 1975 2.7 20:49:12 10° S 20:53:17 83° E 20:57:25 10° N
Cosmos 468 Rocket 4.0 20:50:46 10° S 20:55:44 54° ESE 21:00:44 10° NNE
SL-24 R/B - RUBIN 2 4.3 20:52:48 10° SSW 20:58:29 88° WNW 21:04:56 10° NNE
Chunghua 1 4.5 20:55:22 10° WSW 20:59:13 72° SSE 21:00:21 43° E
Cosmos 2173 Rocket 4.3 20:56:18 17° SSE 21:00:57 45° E 21:06:56 10° NNE
H-2A R/B 3.7 20:57:38 10° S 21:01:22 47° W 21:05:09 10° NNW
Cosmos 1814 Rocket 4.0 20:59:50 10° S 21:05:03 56° ESE 21:10:15 10° NNE
Lacrosse 5 rocket 1.1 21:01:27 10° NNW 21:05:04 55° NE 21:05:31 51° ENE
CZ-4 DEB 2.6 21:11:14 81° NE 21:11:14 81° NE 21:14:17 10° N
Cosmos 1980 Rocket 2.4 21:06:02 10° S 21:11:23 45° ESE 21:16:47 10° NE
Cosmos 2100 Rocket 4.0 21:07:11 12° S 21:12:56 63° E 21:19:06 10° NNE
YAOGAN 11 4.1 21:14:06 36° SSE 21:15:55 88° E 21:20:25 10° NNW
Cosmos 2061 Rocket 4.0 21:12:26 19° SSE 21:16:56 61° E 21:23:07 10° NNE
SJ-11-01 4.2 21:18:53 36° S 21:20:49 85° W 21:25:30 10° NNW
H-2A R/B 2.6 21:23:39 40° NE 21:23:39 40° NE 21:26:59 10° N
Cosmos 858 Rocket 4.5 21:20:27 10° N 21:25:43 64° ENE 21:26:37 54° ESE
Cosmos 1939 Rocket 2.8 21:26:45 76° SSE 21:27:04 86° ENE 21:31:14 10° N
Cosmos 1461 4.0 21:24:09 10° NW 21:27:51 36° WSW 21:28:49 31° SW
Milstar 3 Cent rocket 4.2 21:06:42 10° W 21:28:42 65° S 21:34:14 36° ESE
Hubble Space Telescope 3.1 21:27:36 10° SW 21:29:06 13° SSW 21:29:06 13° SSW
OAO 2 Rocket 3.2 21:27:14 10° W 21:32:18 88° S 21:33:01 66° E
Cosmos 2298 Rocket 4.0 21:29:57 10° NNW 21:35:17 83° WSW 21:36:31 54° S
Envisat 2.9 21:37:26 57° S 21:38:30 84° WSW 21:43:36 10° NNW
deb Chang Zheng 4 3.5 21:34:53 10° NNE 21:39:22 88° WNW 21:39:28 85° SW
Nimbus 7 Rocket 4.3 21:33:49 10° NNE 21:39:55 83° ESE 21:43:21 28° S
ASTEX 1 3.8 21:35:16 10° NNE 21:39:20 50° NE 21:39:20 50° NE
Meteor 1-21 4.2 21:36:58 10° N 21:42:41 61° E 21:42:53 60° E
Cosmos 2227 Rocket 3.6 21:37:47 10° NW 21:42:49 34° WSW 21:46:15 18° SSW
Cosmos 2322 Rocket 4.4 21:48:05 11° NE 21:48:05 11° NE 21:48:25 10° NE
Cosmos 1937 Rocket 3.3 21:41:08 10° NNW 21:46:25 80° ENE 21:46:32 79° E
H-2A R/B 4.0 21:48:51 15° NE 21:48:51 15° NE 21:50:16 10° NNE
Cosmos 1725 Rocket 4.3 21:47:52 48° ENE 21:47:52 48° ENE 21:53:10 10° NNE
Cosmos 1459 Rocket 4.1 21:43:34 20° SSW 21:47:49 71° W 21:53:55 10° N
Cosmos 2084 4.1 21:48:13 10° NW 21:51:25 53° NW 21:51:25 53° NW
Cosmos 2360 4.3 21:53:09 63° NE 21:53:09 63° NE 21:58:03 10° NNE
Cosmos 1340 4.5 21:51:28 10° N 21:53:18 27° N 21:53:18 27° N
Cosmos 2297 Rocket 3.4 21:53:13 10° NW 21:58:19 35° WSW 22:00:22 27° SW
RESURS DK-1 3.6 21:54:37 10° NNW 21:57:19 39° NNW 21:57:19 39° NNW
Cosmos 2098 Rocket 4.0 21:58:17 68° SE 21:59:01 74° E 22:05:11 10° N
Cosmos 990 Rocket 4.2 21:55:17 10° NNW 21:59:50 65° N 21:59:50 65° N
Cosmos 2150 Rocket 4.5 21:56:39 10° NNW 22:01:39 52° WSW 22:02:01 51° WSW
SPOT 1/Viking Rocket 4.2 22:07:00 46° NNE 22:07:00 46° NNE 22:10:51 10° N
DELTA 2 R/B (1) 3.9 22:07:15 10° WNW 22:11:47 59° W 22:11:47 59° W
MetOp-A 4.4 22:15:32 64° WNW 22:15:32 64° WNW 22:20:22 10° NNW
Cosmos 1763 Rocket 4.4 22:23:19 44° WNW 22:23:21 44° WNW 22:28:13 10° N
Lacrosse 5 3.0 22:24:04 10° NW 22:27:19 40° NW 22:27:19 40° NW
SPOT 5 4.2 22:30:12 38° WNW 22:30:12 38° WNW 22:34:04 10° NNW
SL-16 R/B 4.0 22:42:47 23° NNE 22:42:47 23° NNE 22:44:47 10° NNE
USA 215 3.9 22:47:44 46° NNE 22:47:44 46° NNE 22:53:19 10° NNW
Cosmos 1980 Rocket 4.3 22:51:09 10° WSW 22:55:34 23° WNW 23:00:01 10° N
Terra 4.3 23:06:58 18° NNW 23:06:58 18° NNW 23:08:12 10° NNW
H-2A R/B 4.4 23:29:30 18° NNW 23:29:30 18° NNW 23:30:48 10° NNW
Cosmos 2263 Rocket 4.2 23:21:29 10° NNW 23:23:33 23° NNW 23:23:33 23° NNW
Cosmos 2322 Rocket 4.2 23:29:50 23° NNW 23:29:50 23° NNW 23:32:28 10° N
